FW1957 Weather Reports


Display with metric or nautical units.
time (UTC)temp
F
wind
direction
speed
MPH
gust
MPH
rain 1hr
in
rain 24hr
in
rain mn
in
humidity
%
barometer
mb
20260510131219 72 196 10.0 18.0 0.00 0.00 0.00 55 1009.1
20260510130708 72 161 10.0 19.0 0.00 0.00 0.00 56 1009.2
20260510130216 72 169 9.0 20.0 0.00 0.00 0.00 55 1009.3
20260510125716 72 163 11.0 20.0 0.00 0.00 0.00 56 1009.3
20260510125208 72 167 12.0 20.0 0.00 0.00 0.00 54 1009.3
20260510124718 72 180 11.0 21.0 0.00 0.00 0.00 55 1009.4
20260510124213 72 171 13.0 22.0 0.00 0.00 0.00 55 1009.5
20260510123718 72 171 13.0 22.0 0.00 0.00 0.00 54 1009.5
20260510123207 72 190 12.0 22.0 0.00 0.00 0.00 55 1009.6
20260510122712 72 147 12.0 21.0 0.00 0.00 0.00 55 1009.6
20260510122218 73 184 13.0 21.0 0.00 0.00 0.00 55 1009.8
20260510121711 73 194 11.0 20.0 0.00 0.00 0.00 54 1009.8
20260510121217 73 171 9.0 18.0 0.00 0.00 0.00 55 1009.8
20260510120712 73 176 10.0 21.0 0.00 0.00 0.00 55 1009.8
20260510120211 73 161 10.0 21.0 0.00 0.00 0.00 55 1009.8
20260510115715 73 165 10.0 21.0 0.00 0.00 0.00 56 1009.8
20260510115208 73 178 12.0 19.0 0.00 0.00 0.00 55 1010.0
20260510114710 73 170 12.0 19.0 0.00 0.00 0.00 55 1010.2
20260510114216 73 143 11.0 19.0 0.00 0.00 0.00 54 1010.2
20260510113706 73 173 9.0 18.0 0.00 0.00 0.00 54 1010.3
20260510113215 73 162 8.0 19.0 0.00 0.00 0.00 55 1010.4
20260510112209 72 186 11.0 19.0 0.00 0.00 0.00 55 1010.5
20260510111705 72 157 9.0 21.0 0.00 0.00 0.00 57 1010.6
20260510111217 72 191 10.0 21.0 0.00 0.00 0.00 57 1010.6
20260510110706 71 215 12.0 21.0 0.00 0.00 0.00 56 1010.8
20260510110219 72 164 10.0 22.0 0.00 0.00 0.00 55 1010.9
20260510105707 72 149 10.0 22.0 0.00 0.00 0.00 56 1010.9
20260510105219 72 173 11.0 22.0 0.00 0.00 0.00 56 1011.1
20260510104720 71 198 11.0 22.0 0.00 0.00 0.00 57 1011.1
20260510104218 71 165 11.0 21.0 0.00 0.00 0.00 56 1011.2
20260510103218 71 171 9.0 20.0 0.00 0.00 0.00 57 1011.4
20260510102709 71 175 10.0 20.0 0.00 0.00 0.00 57 1011.4
20260510102217 71 192 9.0 20.0 0.00 0.00 0.00 58 1011.4
20260510101713 71 168 8.0 16.0 0.00 0.00 0.00 58 1011.5
20260510101215 70 217 9.0 16.0 0.00 0.00 0.00 59 1011.5
20260510100708 70 175 10.0 18.0 0.00 0.00 0.00 62 1011.6
20260510100218 69 144 11.0 18.0 0.00 0.00 0.00 61 1011.7
20260510095719 69 123 11.0 18.0 0.00 0.00 0.00 60 1011.7
20260510095210 69 132 11.0 18.0 0.00 0.00 0.00 60 1011.8
20260510094711 69 167 10.0 18.0 0.00 0.00 0.00 61 1011.9
20260510094211 68 119 10.0 18.0 0.00 0.00 0.00 60 1012.0
20260510093712 68 115 9.0 15.0 0.00 0.00 0.00 61 1012.0
20260510092705 68 166 7.0 16.0 0.00 0.00 0.00 62 1012.2
20260510092218 67 133 8.0 16.0 0.00 0.00 0.00 61 1012.3
20260510091717 67 111 8.0 16.0 0.00 0.00 0.00 62 1012.4
20260510091218 67 132 8.0 15.0 0.00 0.00 0.00 63 1012.5
20260510090718 66 130 8.0 15.0 0.00 0.00 0.00 62 1012.6
20260510090208 66 137 7.0 13.0 0.00 0.00 0.00 63 1012.6
20260510085716 66 102 7.0 16.0 0.00 0.00 0.00 63 1012.7
20260510085218 65 139 7.0 16.0 0.00 0.00 0.00 63 1012.8
20260510084708 65 140 7.0 16.0 0.00 0.00 0.00 63 1012.9
20260510084219 65 125 7.0 13.0 0.00 0.00 0.00 64 1013.0
20260510083720 64 157 8.0 13.0 0.00 0.00 0.00 64 1013.0
20260510083206 64 143 8.0 12.0 0.00 0.00 0.00 63 1013.0
20260510082205 64 138 8.0 11.0 0.00 0.00 0.00 63 1013.1
20260510081217 63 130 6.0 11.0 0.00 0.00 0.00 64 1013.2
20260510080710 63 134 6.0 11.0 0.00 0.00 0.00 64 1013.3
20260510080213 63 73 6.0 11.0 0.00 0.00 0.00 65 1013.3
20260510075210 62 120 5.0 10.0 0.00 0.00 0.00 67 1013.4
20260510074708 62 155 5.0 9.0 0.00 0.00 0.00 67 1013.5
20260510074214 61 109 4.0 10.0 0.00 0.00 0.00 68 1013.5
20260510073713 61 152 4.0 10.0 0.00 0.00 0.00 67 1013.5
20260510073206 60 102 5.0 10.0 0.00 0.00 0.00 68 1013.5
20260510072717 60 133 5.0 10.0 0.00 0.00 0.00 68 1013.6
20260510072210 59 128 4.0 8.0 0.00 0.00 0.00 69 1013.7
20260510071706 59 102 4.0 8.0 0.00 0.00 0.00 69 1013.7
20260510071217 59 144 5.0 8.0 0.00 0.00 0.00 69 1013.9
20260510070733 58 80 4.0 8.0 0.00 0.00 0.00 70 1013.9
20260510070212 58 111 2.0 5.0 0.00 0.00 0.00 72 1014.1
20260510064211 54 129 2.0 6.0 0.00 0.00 0.00 81 1014.3
20260510063716 53 122 2.0 6.0 0.00 0.00 0.00 84 1014.4
20260510063218 52 100 2.0 4.0 0.00 0.00 0.00 86 1014.4
20260510062714 51 138 2.0 4.0 0.00 0.00 0.00 87 1014.4
20260510062231 51 145 1.0 4.0 0.00 0.00 0.00 89 1014.4
20260510061721 50 181 1.0 4.0 0.00 0.00 0.00 89 1014.5
20260510061219 50 163 1.0 4.0 0.00 0.00 0.00 90 1014.5
20260510060713 49 203 1.0 4.0 0.00 0.00 0.00 90 1014.6
20260510060217 49 210 2.0 4.0 0.00 0.00 0.00 90 1014.7
20260510055715 49 170 1.0 4.0 0.00 0.00 0.00 91 1014.7
20260510055210 48 176 1.0 4.0 0.00 0.00 0.00 91 1014.7
20260510054715 48 202 1.0 4.0 0.00 0.00 0.00 91 1014.8
20260510054211 48 186 2.0 4.0 0.00 0.00 0.00 91 1014.8
20260510053710 47 248 2.0 4.0 0.00 0.00 0.00 91 1014.8
20260510053215 47 233 2.0 4.0 0.00 0.00 0.00 92 1014.8
20260510052715 47 221 3.0 4.0 0.00 0.00 0.00 92 1014.8
20260510052217 47 229 2.0 5.0 0.00 0.00 0.00 92 1014.9
20260510051716 46 229 3.0 5.0 0.00 0.00 0.00 92 1014.8
20260510050713 46 230 2.0 5.0 0.00 0.00 0.00 92 1014.8
20260510050213 46 224 3.0 5.0 0.00 0.00 0.00 92 1014.8
20260510045707 46 236 3.0 4.0 0.00 0.00 0.00 92 1014.8
20260510045219 46 215 3.0 5.0 0.00 0.00 0.00 92 1014.8
20260510044711 45 217 3.0 5.0 0.00 0.00 0.00 92 1014.9
20260510044208 45 229 3.0 5.0 0.00 0.00 0.00 92 1015.0
20260510043711 45 236 3.0 5.0 0.00 0.00 0.00 91 1014.9
20260510043210 45 232 3.0 5.0 0.00 0.00 0.00 91 1015.0
20260510042715 44 252 2.0 4.0 0.00 0.00 0.00 91 1015.0
20260510042209 44 238 3.0 4.0 0.00 0.00 0.00 91 1014.9
20260510041207 44 243 2.0 3.0 0.00 0.00 0.00 91 1014.9
20260510040715 44 234 2.0 4.0 0.00 0.00 0.00 91 1014.9
20260510040215 44 252 3.0 4.0 0.00 0.00 0.00 90 1015.0
20260510035707 44 256 3.0 4.0 0.00 0.00 0.00 90 1015.0
20260510035208 44 252 3.0 4.0 0.00 0.00 0.00 90 1015.0
20260510034718 44 244 2.0 7.0 0.00 0.00 0.00 90 1014.9
20260510034219 44 244 2.0 8.0 0.00 0.00 0.00 90 1014.9
20260510033712 44 244 4.0 8.0 0.00 0.00 0.00 90 1014.9
20260510033215 44 240 4.0 6.0 0.00 0.00 0.00 90 1015.0
20260510032212 44 221 3.0 7.0 0.00 0.00 0.00 90 1015.0
20260510031743 45 238 3.0 8.0 0.00 0.00 0.00 90 1015.0
20260510031214 45 247 4.0 8.0 0.00 0.00 0.00 90 1015.2
20260510030713 45 223 5.0 8.0 0.00 0.00 0.00 90 1015.2
20260510030217 45 230 4.0 6.0 0.00 0.00 0.00 90 1015.2
20260510025713 45 225 4.0 7.0 0.00 0.00 0.00 90 1015.2
20260510024706 45 232 4.0 8.0 0.00 0.00 0.00 90 1015.1
20260510024217 45 222 4.0 6.0 0.00 0.00 0.00 90 1015.3
20260510023712 45 228 3.0 5.0 0.00 0.00 0.00 90 1015.1
20260510023208 45 238 3.0 6.0 0.00 0.00 0.00 90 1015.1
20260510022707 45 235 3.0 6.0 0.00 0.00 0.00 90 1015.2
20260510021718 45 223 3.0 5.0 0.00 0.00 0.00 89 1015.2
20260510020207 45 226 3.0 4.0 0.00 0.00 0.00 89 1015.3
20260510015713 45 226 2.0 4.0 0.00 0.00 0.00 89 1015.4
20260510014711 46 226 3.0 8.0 0.00 0.00 0.00 89 1015.5
20260510014209 46 226 4.0 8.0 0.00 0.00 0.00 89 1015.5
20260510013710 45 223 4.0 8.0 0.00 0.00 0.00 88 1015.6
20260510012717 45 217 3.0 5.0 0.00 0.00 0.00 88 1015.5
20260510012234 45 235 3.0 4.0 0.00 0.00 0.00 88 1015.5
20260510011215 46 244 3.0 4.0 0.00 0.00 0.00 87 1015.4
20260510010714 46 239 3.0 3.0 0.00 0.00 0.00 87 1015.4
20260510010217 46 232 2.0 3.0 0.00 0.00 0.00 87 1015.4
20260510005708 46 232 2.0 3.0 0.00 0.00 0.00 87 1015.4
20260510005217 46 232 1.0 3.0 0.00 0.00 0.00 86 1015.4
20260510003707 46 232 2.0 4.0 0.00 0.00 0.00 86 1015.5
20260510003215 46 238 3.0 4.0 0.00 0.00 0.00 85 1015.6
20260510002706 46 239 2.0 4.0 0.00 0.00 0.00 85 1015.6
20260510002214 46 238 2.0 3.0 0.00 0.00 0.00 84 1015.6
20260510001713 47 292 2.0 2.0 0.00 0.00 0.00 84 1015.6
20260510001211 47 292 1.0 3.0 0.00 0.00 0.00 84 1015.6
20260510000710 47 292 1.0 3.0 0.00 0.00 0.00 84 1015.7
20260510000211 47 292 1.0 3.0 0.00 0.00 0.00 83 1015.6
20260509235708 47 292 1.0 2.0 0.00 0.00 0.00 83 1015.7
20260509234713 48 292 1.0 2.0 0.00 0.00 0.00 82 1015.7
20260509234216 48 292 1.0 2.0 0.00 0.00 0.00 82 1015.7
20260509233713 48 292 1.0 2.0 0.00 0.00 0.00 82 1015.9
20260509232720 49 292 0.0 2.0 0.00 0.00 0.00 81 1016.1
20260509232210 49 292 1.0 2.0 0.00 0.00 0.00 81 1016.1
20260509231219 49 292 1.0 4.0 0.00 0.00 0.00 81 1016.3
20260509230711 50 292 2.0 4.0 0.00 0.00 0.00 81 1016.4
20260509230220 50 296 1.0 3.0 0.00 0.00 0.00 81 1016.3
20260509225207 50 313 0.0 0.0 0.00 0.00 0.00 81 1016.4
20260509223712 51 323 1.0 3.0 0.00 0.00 0.00 81 1016.6
20260509223217 51 322 2.0 4.0 0.00 0.00 0.00 81 1016.6
20260509222731 51 304 2.0 4.0 0.00 0.00 0.00 81 1016.6
20260509222212 51 323 2.0 4.0 0.00 0.00 0.00 81 1016.6
20260509221705 51 321 2.0 4.0 0.00 0.00 0.00 81 1016.6
20260509221209 51 338 2.0 4.0 0.00 0.00 0.00 82 1016.7
20260509220715 51 327 2.0 4.0 0.00 0.00 0.00 82 1016.8
20260509220217 51 339 2.0 4.0 0.00 0.00 0.00 82 1016.8
20260509215719 51 337 2.0 4.0 0.00 0.00 0.00 82 1016.7
20260509215205 51 342 2.0 5.0 0.00 0.00 0.00 82 1016.8
20260509214212 52 326 3.0 4.0 0.00 0.00 0.00 83 1016.8
20260509213708 52 336 3.0 4.0 0.00 0.00 0.00 82 1016.8
20260509213213 52 344 2.0 4.0 0.00 0.00 0.00 82 1016.8
20260509212210 52 355 3.0 5.0 0.00 0.00 0.00 84 1016.9
20260509211709 52 23 2.0 5.0 0.00 0.00 0.00 84 1016.9
20260509211217 52 40 2.0 5.0 0.00 0.00 0.00 86 1016.8
20260509210713 53 42 2.0 4.0 0.00 0.00 0.00 87 1016.8
20260509205714 53 65 1.0 3.0 0.00 0.00 0.00 87 1016.7
20260509205208 54 25 0.0 3.0 0.00 0.00 0.00 87 1016.7
20260509204712 54 48 0.0 3.0 0.00 0.00 0.00 88 1016.7
20260509204215 54 10 1.0 3.0 0.00 0.00 0.00 88 1016.6
20260509203720 54 10 2.0 4.0 0.00 0.00 0.00 88 1016.4
20260509202712 54 84 2.0 6.0 0.00 0.00 0.00 88 1016.4
20260509202207 54 75 3.0 9.0 0.00 0.00 0.00 87 1016.3
20260509201711 54 66 3.0 9.0 0.00 0.00 0.00 87 1016.3
20260509201218 55 63 3.0 9.0 0.00 0.00 0.00 86 1016.2
20260509200712 55 333 3.0 5.0 0.00 0.00 0.00 86 1016.2
20260509200219 55 261 3.0 5.0 0.00 0.00 0.00 86 1016.1
20260509195717 55 246 3.0 5.0 0.00 0.00 0.00 86 1016.1
20260509195210 56 236 4.0 5.0 0.00 0.00 0.00 86 1016.1
20260509194711 56 250 4.0 5.0 0.00 0.00 0.00 86 1016.1
20260509194212 56 231 3.0 6.0 0.00 0.00 0.00 86 1016.1
20260509193718 56 220 3.0 6.0 0.00 0.00 0.00 86 1016.1
20260509192707 56 213 3.0 6.0 0.00 0.00 0.00 85 1016.1
20260509191716 56 237 4.0 6.0 0.00 0.00 0.00 85 1016.1
20260509191206 56 232 4.0 7.0 0.00 0.00 0.00 85 1016.0
20260509190715 57 232 4.0 7.0 0.00 0.00 0.00 85 1016.0
20260509190216 57 202 4.0 6.0 0.00 0.00 0.00 84 1016.0
20260509185714 57 220 3.0 5.0 0.00 0.00 0.00 84 1015.9
20260509185220 57 214 2.0 6.0 0.00 0.00 0.00 84 1015.8
20260509184717 57 219 3.0 6.0 0.00 0.00 0.00 84 1015.8
20260509184219 57 203 4.0 6.0 0.00 0.00 0.00 84 1015.8
20260509183718 58 217 4.0 6.0 0.00 0.00 0.00 84 1015.7
20260509183213 58 204 3.0 5.0 0.00 0.00 0.00 83 1015.6
20260509182704 58 216 2.0 6.0 0.00 0.00 0.00 83 1015.5
20260509182211 58 219 3.0 6.0 0.00 0.00 0.00 83 1015.5
20260509181732 58 217 4.0 6.0 0.00 0.00 0.00 82 1015.5
20260509180713 58 232 5.0 7.0 0.00 0.00 0.00 82 1015.6
20260509180207 59 231 5.0 7.0 0.00 0.00 0.00 81 1015.6
20260509175715 59 217 4.0 7.0 0.00 0.00 0.00 81 1015.6
20260509175211 59 234 4.0 7.0 0.00 0.00 0.00 81 1015.6
20260509174705 59 220 4.0 7.0 0.00 0.00 0.00 80 1015.6
20260509174217 60 209 5.0 7.0 0.00 0.00 0.00 80 1015.7
20260509173708 60 232 5.0 9.0 0.00 0.00 0.00 79 1015.7
20260509172719 60 209 5.0 12.0 0.00 0.00 0.00 78 1015.5
20260509172218 60 196 6.0 13.0 0.00 0.00 0.00 77 1015.5
20260509171733 60 215 7.0 13.0 0.00 0.00 0.00 76 1015.5
20260509171219 61 232 7.0 13.0 0.00 0.00 0.00 75 1015.5
20260509170732 61 209 7.0 11.0 0.00 0.00 0.00 75 1015.5
20260509165715 61 195 6.0 12.0 0.00 0.00 0.00 77 1015.6
20260509165209 61 230 6.0 12.0 0.00 0.00 0.00 77 1015.6
20260509164710 61 229 6.0 12.0 0.00 0.00 0.00 76 1015.7
20260509164206 61 226 6.0 9.0 0.00 0.00 0.00 75 1015.6
20260509163719 61 219 5.0 8.0 0.00 0.00 0.00 76 1015.5
20260509163207 61 241 3.0 7.0 0.00 0.00 0.00 77 1015.5
20260509162715 61 190 4.0 8.0 0.00 0.00 0.00 77 1015.5
20260509162207 61 198 4.0 10.0 0.00 0.00 0.00 78 1015.4
20260509161710 61 202 5.0 10.0 0.00 0.00 0.00 78 1015.4
20260509161213 61 213 6.0 10.0 0.00 0.00 0.00 78 1015.5
20260509160725 61 244 6.0 10.0 0.00 0.00 0.00 78 1015.6
20260509155721 61 222 5.0 10.0 0.00 0.00 0.00 79 1015.6
20260509155218 61 238 5.0 11.0 0.00 0.00 0.00 78 1015.6
20260509154709 61 241 5.0 12.0 0.00 0.00 0.00 79 1015.6
20260509154211 61 218 6.0 13.0 0.00 0.00 0.00 79 1015.6
20260509152713 61 223 5.0 12.0 0.00 0.00 0.00 80 1015.8
20260509151709 61 216 6.0 13.0 0.00 0.00 0.00 79 1015.7
20260509151208 61 227 7.0 14.0 0.00 0.00 0.00 79 1015.9
20260509150715 61 227 8.0 16.0 0.00 0.00 0.00 79 1015.9
20260509150211 61 225 10.0 16.0 0.00 0.00 0.00 78 1015.9
20260509145713 61 223 10.0 16.0 0.00 0.00 0.00 76 1015.9
20260509145206 61 237 10.0 15.0 0.00 0.00 0.00 76 1015.9
20260509144721 61 236 10.0 15.0 0.00 0.00 0.00 75 1015.9
20260509144210 61 241 10.0 15.0 0.00 0.00 0.00 74 1015.9
20260509143221 62 236 8.0 14.0 0.00 0.00 0.00 72 1015.9
20260509142709 63 242 8.0 15.0 0.00 0.00 0.00 71 1015.9
20260509142216 63 244 8.0 15.0 0.00 0.00 0.00 70 1016.0
20260509141710 64 221 8.0 13.0 0.00 0.00 0.00 69 1016.0
20260509141208 64 223 6.0 13.0 0.00 0.00 0.00 67 1016.0
20260509135713 65 240 3.0 6.0 0.00 0.00 0.00 61 1016.1
20260509135213 65 238 2.0 3.0 0.00 0.00 0.00 59 1016.1
20260509134717 65 242 1.0 3.0 0.00 0.00 0.00 58 1016.1
20260509134214 65 323 1.0 3.0 0.00 0.00 0.00 57 1016.1
20260509133708 65 323 2.0 6.0 0.00 0.00 0.00 57 1016.1
20260509132718 65 63 2.0 6.0 0.00 0.00 0.00 57 1016.1
20260509132219 65 84 2.0 4.0 0.00 0.00 0.00 57 1016.2
20260509131709 65 64 2.0 4.0 0.00 0.00 0.00 56 1016.2